BAW46EZ EGLL-LEMD

Flight info

Callsign BAW46EZ
Flight time N/A
Altitude 31000
Route GOGSI2F GOGSI N621 SAM M195 IBNID/N0453F330 M195 MARUK N621 LELNA DCT ERCOZ DCT NOVAN DCT DELOG N864 VADOX DCT SNR N864 NONTU NONTU4C
Aircraft B772/H-SDE1E3FGHIJ3J5J6M1M2P2RWXYZ/LB1D1

Departure

Time N/A
Airport London Heathrow Airport (EGLL)

Arrival

Time 2026-05-01 10:53
Airport Adolfo Suárez Madrid–Barajas Airport (LEMD)
Time Latitude Longitude Altitude Speed Heading
2026-05-01 09:19 50.14765 -2.08627 39148 ft 463 kts 184°
2026-05-01 09:19 50.12596 -2.08856 39183 ft 463 kts 184°
2026-05-01 09:19 50.09423 -2.09218 39327 ft 464 kts 185°
2026-05-01 09:20 50.03018 -2.10067 39895 ft 460 kts 187°
2026-05-01 09:20 49.96843 -2.12518 40353 ft 459 kts 201°
2026-05-01 09:21 49.90286 -2.17936 40752 ft 461 kts 211°
2026-05-01 09:21 49.88439 -2.19701 40872 ft 461 kts 211°
2026-05-01 09:21 49.83011 -2.24896 41137 ft 463 kts 211°
2026-05-01 09:22 49.72028 -2.35218 41198 ft 458 kts 211°
2026-05-01 09:23 49.63899 -2.42766 41213 ft 456 kts 211°
2026-05-01 09:24 49.55316 -2.50707 41219 ft 458 kts 211°
2026-05-01 09:25 49.44377 -2.60783 41212 ft 461 kts 211°
2026-05-01 09:26 49.36104 -2.68368 41223 ft 462 kts 210°
2026-05-01 09:26 49.27835 -2.75919 41217 ft 460 kts 210°
2026-05-01 09:27 49.19641 -2.83373 41232 ft 457 kts 210°
2026-05-01 09:28 49.14173 -2.88331 41230 ft 457 kts 210°
2026-05-01 09:28 49.08712 -2.93269 41233 ft 456 kts 210°
2026-05-01 09:29 49.00558 -3.00619 41225 ft 456 kts 210°
2026-05-01 09:30 48.92353 -3.07988 41244 ft 457 kts 210°
2026-05-01 09:30 48.84149 -3.15326 41219 ft 455 kts 210°
2026-05-01 09:31 48.78730 -3.20159 41216 ft 454 kts 210°
2026-05-01 09:32 48.74202 -3.24187 41217 ft 454 kts 210°
2026-05-01 09:32 48.62029 -3.34975 41215 ft 453 kts 210°
2026-05-01 09:33 48.56584 -3.39780 41214 ft 453 kts 210°
2026-05-01 09:34 48.40987 -3.53483 41222 ft 454 kts 209°
2026-05-01 09:35 48.32440 -3.59456 41226 ft 452 kts 194°
2026-05-01 09:36 48.26221 -3.60721 41222 ft 452 kts 182°
2026-05-01 09:36 48.19934 -3.60970 41215 ft 452 kts 182°
2026-05-01 09:37 48.13685 -3.61202 41221 ft 452 kts 182°
2026-05-01 09:37 48.04247 -3.61635 41216 ft 453 kts 182°
2026-05-01 09:38 47.94801 -3.62105 41207 ft 453 kts 182°
2026-05-01 09:39 47.85390 -3.62571 41217 ft 453 kts 182°
2026-05-01 09:39 47.79086 -3.62882 41215 ft 453 kts 182°
2026-05-01 09:40 47.69627 -3.63345 41212 ft 453 kts 183°
2026-05-01 09:41 47.63325 -3.63653 41215 ft 453 kts 183°
2026-05-01 09:41 47.53907 -3.64112 41218 ft 454 kts 183°
2026-05-01 09:42 47.47598 -3.64419 41223 ft 454 kts 183°
2026-05-01 09:44 47.18841 -3.65807 41237 ft 455 kts 183°
2026-05-01 09:45 47.12511 -3.66110 41239 ft 455 kts 183°
2026-05-01 09:45 47.03058 -3.66562 41239 ft 455 kts 183°
2026-05-01 09:46 46.96724 -3.66864 41239 ft 455 kts 183°
2026-05-01 09:46 46.90391 -3.67165 41232 ft 455 kts 183°
2026-05-01 09:47 46.84096 -3.67464 41252 ft 456 kts 183°
2026-05-01 09:47 46.77755 -3.67764 41247 ft 456 kts 183°
2026-05-01 09:48 46.71407 -3.68064 41240 ft 456 kts 183°
2026-05-01 09:48 46.65063 -3.68362 41241 ft 456 kts 183°
2026-05-01 09:49 46.58715 -3.68661 41235 ft 456 kts 183°
2026-05-01 09:49 46.52413 -3.68956 41244 ft 456 kts 183°
2026-05-01 09:50 46.46066 -3.69253 41234 ft 456 kts 183°
2026-05-01 09:50 46.39723 -3.69550 41238 ft 456 kts 183°
2026-05-01 09:51 46.33376 -3.69845 41234 ft 456 kts 184°
2026-05-01 09:51 46.27098 -3.70596 41228 ft 456 kts 187°
2026-05-01 09:52 46.20790 -3.71574 41244 ft 456 kts 187°
2026-05-01 09:52 46.14472 -3.72546 41245 ft 457 kts 187°
2026-05-01 09:53 46.08145 -3.73499 41236 ft 457 kts 187°
2026-05-01 09:53 46.01853 -3.74435 41238 ft 458 kts 187°
2026-05-01 09:54 45.95514 -3.75374 41236 ft 458 kts 187°
2026-05-01 09:54 45.89179 -3.76312 41227 ft 458 kts 187°
2026-05-01 09:55 45.82840 -3.77248 41234 ft 458 kts 187°
2026-05-01 09:55 45.76498 -3.78183 41231 ft 458 kts 187°
2026-05-01 09:56 45.70197 -3.79110 41220 ft 458 kts 187°
2026-05-01 09:56 45.63849 -3.80042 41226 ft 459 kts 187°
2026-05-01 09:57 45.57491 -3.80973 41227 ft 459 kts 187°
2026-05-01 09:57 45.51134 -3.81901 41220 ft 460 kts 187°
2026-05-01 09:58 45.44768 -3.82829 41223 ft 460 kts 187°
2026-05-01 09:58 45.38443 -3.83749 41224 ft 460 kts 187°
2026-05-01 09:59 45.32066 -3.84674 41223 ft 460 kts 187°
2026-05-01 09:59 45.25693 -3.85597 41221 ft 461 kts 187°
2026-05-01 10:00 45.19315 -3.86518 41225 ft 461 kts 187°
2026-05-01 10:00 45.12985 -3.87430 41219 ft 460 kts 187°
2026-05-01 10:01 45.06621 -3.88345 41215 ft 460 kts 187°
2026-05-01 10:01 45.00606 -3.89208 41213 ft 459 kts 187°
2026-05-01 10:02 44.94247 -3.90118 41212 ft 459 kts 187°
2026-05-01 10:02 44.87884 -3.91027 41207 ft 460 kts 187°
2026-05-01 10:03 44.81519 -3.91935 41211 ft 460 kts 187°
2026-05-01 10:03 44.75188 -3.92835 41210 ft 460 kts 187°
2026-05-01 10:04 44.68812 -3.93740 41207 ft 461 kts 187°
2026-05-01 10:04 44.62433 -3.94643 41207 ft 461 kts 187°
2026-05-01 10:05 44.56049 -3.95545 41207 ft 461 kts 187°
2026-05-01 10:05 44.49668 -3.96445 41199 ft 461 kts 187°
2026-05-01 10:06 44.43330 -3.97336 41203 ft 461 kts 187°
2026-05-01 10:06 44.36944 -3.98233 41195 ft 461 kts 187°
2026-05-01 10:07 44.30534 -3.98675 41194 ft 463 kts 178°
2026-05-01 10:07 44.24098 -3.98001 41196 ft 464 kts 177°
2026-05-01 10:08 44.14485 -3.96987 41181 ft 464 kts 178°
2026-05-01 10:09 44.08043 -3.96351 41191 ft 464 kts 178°
2026-05-01 10:09 44.01595 -3.95722 41185 ft 465 kts 178°
2026-05-01 10:10 43.95146 -3.95094 41177 ft 465 kts 178°
2026-05-01 10:10 43.85514 -3.94156 41180 ft 465 kts 178°
2026-05-01 10:11 43.79062 -3.93529 41179 ft 465 kts 178°
2026-05-01 10:11 43.72960 -3.92935 41171 ft 465 kts 178°
2026-05-01 10:12 43.66291 -3.92280 41172 ft 465 kts 178°
2026-05-01 10:13 43.56616 -3.91332 41160 ft 465 kts 178°
2026-05-01 10:13 43.50207 -3.90707 41157 ft 465 kts 178°
2026-05-01 10:14 43.40544 -3.90748 41158 ft 462 kts 188°
2026-05-01 10:14 43.34158 -3.91772 41156 ft 462 kts 188°
2026-05-01 10:15 43.27802 -3.92761 41163 ft 463 kts 188°
2026-05-01 10:15 43.21395 -3.93720 41165 ft 463 kts 188°
2026-05-01 10:16 43.14985 -3.94668 41157 ft 463 kts 188°
2026-05-01 10:17 43.05377 -3.96087 41169 ft 463 kts 188°
2026-05-01 10:17 42.95815 -3.97497 41164 ft 463 kts 188°
2026-05-01 10:18 42.86198 -3.98906 41168 ft 464 kts 188°
2026-05-01 10:19 42.79772 -3.99844 41162 ft 465 kts 188°
2026-05-01 10:19 42.73372 -4.00778 41166 ft 465 kts 188°
2026-05-01 10:20 42.63703 -4.02185 41167 ft 466 kts 188°
2026-05-01 10:20 42.57312 -4.03112 41166 ft 466 kts 188°
2026-05-01 10:21 42.47692 -4.04496 41156 ft 465 kts 188°
2026-05-01 10:22 42.38043 -4.05879 41162 ft 465 kts 188°
2026-05-01 10:23 42.28492 -4.07245 41170 ft 465 kts 188°
2026-05-01 10:23 42.18934 -4.08608 41156 ft 465 kts 188°
2026-05-01 10:24 42.06078 -4.10435 41157 ft 464 kts 188°
2026-05-01 10:25 41.93198 -4.12032 41162 ft 465 kts 186°
2026-05-01 10:26 41.90014 -4.12379 40932 ft 468 kts 187°
2026-05-01 10:26 41.86745 -4.12741 40305 ft 472 kts 187°
2026-05-01 10:26 41.80274 -4.13469 39093 ft 471 kts 187°
2026-05-01 10:27 41.73755 -4.14209 37822 ft 466 kts 187°
2026-05-01 10:27 41.67398 -4.14931 36885 ft 457 kts 187°
2026-05-01 10:28 41.64246 -4.15288 36425 ft 453 kts 187°
2026-05-01 10:28 41.61121 -4.15642 35973 ft 449 kts 187°
2026-05-01 10:28 41.54731 -4.16365 35014 ft 443 kts 187°
2026-05-01 10:29 41.48625 -4.17054 34071 ft 438 kts 187°
2026-05-01 10:29 41.45596 -4.17394 33544 ft 436 kts 187°
2026-05-01 10:30 41.39594 -4.18069 32587 ft 430 kts 187°
2026-05-01 10:30 41.33719 -4.18730 31671 ft 424 kts 187°
2026-05-01 10:31 41.27875 -4.19386 30756 ft 419 kts 187°
2026-05-01 10:31 41.22085 -4.19893 29776 ft 415 kts 185°
2026-05-01 10:32 41.16455 -4.20189 28763 ft 410 kts 185°
2026-05-01 10:32 41.13614 -4.20340 28275 ft 408 kts 185°
2026-05-01 10:32 41.07978 -4.20665 27290 ft 403 kts 185°
2026-05-01 10:33 41.02405 -4.21002 26323 ft 399 kts 185°
2026-05-01 10:33 40.96926 -4.21336 25411 ft 395 kts 185°
2026-05-01 10:34 40.94188 -4.21502 24942 ft 393 kts 185°
2026-05-01 10:34 40.91458 -4.21668 24481 ft 392 kts 184°
2026-05-01 10:34 40.90541 -4.21723 24325 ft 391 kts 184°
2026-05-01 10:35 40.81085 -4.22292 22579 ft 385 kts 185°
2026-05-01 10:35 40.78458 -4.22450 22123 ft 382 kts 185°
2026-05-01 10:35 40.75812 -4.22609 21672 ft 380 kts 185°
2026-05-01 10:36 40.70560 -4.22925 20780 ft 376 kts 185°
2026-05-01 10:36 40.67956 -4.23081 20333 ft 374 kts 185°
2026-05-01 10:36 40.65366 -4.23238 19884 ft 372 kts 185°
2026-05-01 10:37 40.62782 -4.23393 19447 ft 371 kts 185°
2026-05-01 10:37 40.57671 -4.23700 18563 ft 370 kts 185°
2026-05-01 10:37 40.55098 -4.23853 18057 ft 370 kts 185°
2026-05-01 10:38 40.52552 -4.23868 17562 ft 365 kts 175°
2026-05-01 10:38 40.50127 -4.22948 17114 ft 360 kts 159°
2026-05-01 10:38 40.47828 -4.21648 16689 ft 359 kts 160°
2026-05-01 10:38 40.45513 -4.20419 16253 ft 359 kts 160°
2026-05-01 10:39 40.38395 -4.16762 14911 ft 359 kts 160°
2026-05-01 10:39 40.36124 -4.15481 14452 ft 352 kts 151°
2026-05-01 10:40 40.34317 -4.13336 14077 ft 353 kts 128°
2026-05-01 10:40 40.33181 -4.10521 13775 ft 347 kts 111°
2026-05-01 10:40 40.32435 -4.07568 13407 ft 334 kts 109°
2026-05-01 10:40 40.31744 -4.04706 13046 ft 327 kts 109°
2026-05-01 10:41 40.31062 -4.01885 12759 ft 323 kts 109°
2026-05-01 10:41 40.30380 -3.99095 12493 ft 320 kts 109°
2026-05-01 10:41 40.29026 -3.93634 11960 ft 315 kts 110°
2026-05-01 10:42 40.28343 -3.90912 11707 ft 314 kts 110°
2026-05-01 10:42 40.27662 -3.88203 11452 ft 313 kts 110°
2026-05-01 10:42 40.26979 -3.85495 11194 ft 313 kts 110°
2026-05-01 10:42 40.26297 -3.82791 10935 ft 313 kts 110°
2026-05-01 10:43 40.25613 -3.80088 10678 ft 312 kts 110°
2026-05-01 10:43 40.24932 -3.77398 10447 ft 309 kts 111°
2026-05-01 10:43 40.24262 -3.74756 10199 ft 303 kts 111°
2026-05-01 10:43 40.23611 -3.72191 9930 ft 298 kts 111°
2026-05-01 10:44 40.22962 -3.69640 9667 ft 293 kts 111°
2026-05-01 10:44 40.22324 -3.67134 9417 ft 288 kts 111°
2026-05-01 10:44 40.21698 -3.64673 9175 ft 282 kts 111°
2026-05-01 10:44 40.21083 -3.62260 8948 ft 278 kts 111°
2026-05-01 10:45 40.20474 -3.59878 8730 ft 274 kts 111°
2026-05-01 10:45 40.19799 -3.57235 8471 ft 273 kts 111°
2026-05-01 10:45 40.19198 -3.54886 8250 ft 272 kts 111°
2026-05-01 10:45 40.18597 -3.52551 8014 ft 271 kts 111°
2026-05-01 10:46 40.18001 -3.50221 7797 ft 270 kts 111°
2026-05-01 10:46 40.17517 -3.47917 7562 ft 264 kts 97°
2026-05-01 10:46 40.17828 -3.45577 7355 ft 265 kts 65°
2026-05-01 10:46 40.18923 -3.43662 7147 ft 263 kts 44°
2026-05-01 10:47 40.20297 -3.42064 6942 ft 266 kts 43°
2026-05-01 10:47 40.21770 -3.40598 6705 ft 267 kts 32°
2026-05-01 10:47 40.23389 -3.39424 6532 ft 264 kts 29°
2026-05-01 10:47 40.25013 -3.38364 6285 ft 257 kts 20°
2026-05-01 10:48 40.26730 -3.38079 6090 ft 243 kts
2026-05-01 10:48 40.28386 -3.37999 5877 ft 239 kts
2026-05-01 10:48 40.30022 -3.37872 5714 ft 231 kts
2026-05-01 10:48 40.31562 -3.38043 5485 ft 219 kts 337°
2026-05-01 10:49 40.32843 -3.39018 5314 ft 209 kts 324°
2026-05-01 10:49 40.34014 -3.40098 5145 ft 203 kts 321°
2026-05-01 10:49 40.35120 -3.41198 4935 ft 197 kts 320°
2026-05-01 10:49 40.36180 -3.42271 4694 ft 187 kts 320°
2026-05-01 10:50 40.37194 -3.43304 4462 ft 181 kts 320°
2026-05-01 10:50 40.38174 -3.44296 4206 ft 174 kts 322°
2026-05-01 10:50 40.39117 -3.45252 3997 ft 171 kts 321°
2026-05-01 10:50 40.40067 -3.46217 3787 ft 174 kts 321°
2026-05-01 10:51 40.41014 -3.47176 3537 ft 173 kts 321°
2026-05-01 10:51 40.41938 -3.48116 3288 ft 160 kts 321°
2026-05-01 10:51 40.42785 -3.48974 3104 ft 147 kts 320°
2026-05-01 10:51 40.43573 -3.49780 2906 ft 142 kts 320°
2026-05-01 10:52 40.44350 -3.50565 2709 ft 141 kts 321°
2026-05-01 10:52 40.45130 -3.51359 2533 ft 144 kts 321°
2026-05-01 10:52 40.45925 -3.52170 2359 ft 145 kts 322°
2026-05-01 10:52 40.46711 -3.52975 2131 ft 141 kts 321°
2026-05-01 10:53 40.47480 -3.53761 1941 ft 140 kts 322°
2026-05-01 10:53 40.48179 -3.54468 1938 ft 110 kts 322°
2026-05-01 10:53 40.48632 -3.54927 1951 ft 46 kts 322°
2026-05-01 10:53 40.48785 -3.55171 1956 ft 23 kts 294°
2026-05-01 10:54 40.48837 -3.55330 1956 ft 15 kts 292°
2026-05-01 10:54 40.48887 -3.55453 1957 ft 15 kts 311°
2026-05-01 10:54 40.48970 -3.55543 1958 ft 15 kts 322°
2026-05-01 10:54 40.49055 -3.55630 1959 ft 16 kts 322°
2026-05-01 10:55 40.49149 -3.55725 1963 ft 18 kts 322°
2026-05-01 10:55 40.49249 -3.55827 1965 ft 18 kts 322°
2026-05-01 10:55 40.49300 -3.55970 1964 ft 19 kts 270°
2026-05-01 10:55 40.49297 -3.56140 1963 ft 19 kts 269°
2026-05-01 10:56 40.49238 -3.56246 1966 ft 17 kts 184°
2026-05-01 10:56 40.49122 -3.56245 1966 ft 17 kts 179°
2026-05-01 10:56 40.49006 -3.56243 1966 ft 17 kts 179°
2026-05-01 10:56 40.48890 -3.56242 1966 ft 17 kts 180°
2026-05-01 10:57 40.48779 -3.56264 1967 ft 17 kts 229°
2026-05-01 10:57 40.48768 -3.56415 1975 ft 17 kts 269°
2026-05-01 10:57 40.48767 -3.56565 1979 ft 17 kts 269°
2026-05-01 10:57 40.48766 -3.56717 1982 ft 17 kts 269°
2026-05-01 10:58 40.48766 -3.56870 1985 ft 17 kts 269°
2026-05-01 10:58 40.48765 -3.57016 1987 ft 16 kts 270°
2026-05-01 10:58 40.48820 -3.57110 1987 ft 15 kts 354°
2026-05-01 10:58 40.48928 -3.57113 1988 ft 17 kts 359°
2026-05-01 10:59 40.49049 -3.57115 1985 ft 17 kts 359°
2026-05-01 10:59 40.49170 -3.57115 1988 ft 17 kts
2026-05-01 10:59 40.49274 -3.57097 1986 ft 14 kts 43°
2026-05-01 10:59 40.49329 -3.57003 1985 ft 14 kts 12°
2026-05-01 11:00 40.49416 -3.57002 1979 ft 11 kts 359°
2026-05-01 11:00 40.49462 -3.56979 1981 ft 7 kts 64°
2026-05-01 11:00 40.49467 -3.56912 1978 ft 7 kts 88°
2026-05-01 11:00 40.49468 -3.56871 1977 ft 2 kts 89°
2026-05-01 11:01 40.49468 -3.56861 1977 ft 0 kts 89°